[[{"header":{"parameterUnit":"m.s-1","parameterCategory":1,"la1":30.2991,"la2":30.254,"lo1":-89.0895,"lo2":-89.0444,"dy":0.0017,"dx":0.0017,"nx":28,"ny":28,"refTime":"2023-09-26T09:00:00:Z","depth":0,"parameterNumber":2,"parameterNumberName":"U-component_of_WINDS"},"data":[0,0,0,0,0,0,0,0,0,0,0,0,0,0,0,0,0,0,0,0,0,0,0,0,0,0,0,0,0,0,0,0,0,0,0,0,0,0,0,0,0,0,0,0,0,0,0,0,0,0,0,0,0,0,0,0,0,0,-5.0049,-5.0049,0,-5.0063,-5.0063,-5.0063,-4.9924,-4.992,-4.9916,-4.9912,-4.993,-4.9934,-4.9938,0,0,0,0,0,0,0,0,0,0,0,0,0,-4.9906,-4.9909,-5.0049,-5.0049,-5.0049,-5.0063,-5.0063,-5.0063,-4.9924,-4.992,-4.9915,-4.9911,-4.9929,-4.9933,-4.9938,0,0,0,0,0,0,0,0,0,0,0,0,0,-4.9949,-4.991,-5.0049,-4.9982,-4.9976,-5.0063,-5.0063,-5.0063,-4.9925,-4.992,-4.9914,-4.9908,-4.9927,-4.9933,-4.9939,-5.0092,0,0,-4.9957,-4.996,0,0,0,0,0,0,0,0,-4.9947,-4.9954,-4.9991,-4.9986,-4.998,-4.9986,-5.0019,-5.0073,-4.9927,-4.9945,-4.9912,-4.9906,-4.9953,-4.9957,-4.9972,-5.0093,-5.0094,-4.9958,-4.9962,-4.9964,-4.9966,0,0,0,0,0,0,0,-4.9944,-4.9953,-5.0054,-4.9992,-4.9985,-4.9952,-4.9952,-5.0029,-4.9981,-4.9943,-4.9932,-4.9936,-4.9949,-4.9967,-4.9972,-5.0094,-4.9958,-4.9963,-4.9967,-4.9969,-5.0344,-5.035,0,0,0,0,0,0,-4.9949,-4.9951,-5.0054,-5.0055,-4.9948,-4.9959,-4.9959,-4.999,-4.998,-4.9973,-4.9941,-4.9929,-4.9959,-4.9965,-4.9972,-5.0152,-4.9964,-4.997,-4.9974,-5.0338,-5.0345,-5.0352,0,0,0,0,0,0,-4.9947,-4.996,-5.0053,-5.0,-5.001,-4.9968,-5.0004,-4.9993,-5.001,-4.9979,-4.997,-4.9967,-4.9955,-4.9963,-5.0064,-5.015,-4.9973,-4.9978,-5.033,-5.034,-5.0349,-5.0513,0,0,0,0,0,0,-4.9943,-4.996,-5.0017,-5.0003,-5.0013,-5.0144,-5.0009,-4.9997,-5.0021,-5.0006,-5.0001,-4.9995,-4.9951,-5.0055,-5.007,-5.0156,-4.9983,-5.0322,-5.0335,-5.0346,-5.0499,-5.0527,-5.055,0,0,0,0,0,-4.9939,-5.0062,-5.002,-5.0033,-5.0083,-5.015,-5.0156,-5.0102,-5.0028,-5.0086,-5.0066,-4.9995,-5.0139,-5.0067,-5.0082,-5.0171,-5.0317,-5.0331,-5.0345,-5.0488,-5.0521,-5.0549,0,0,0,0,0,0,-5.0088,-5.0059,-5.0012,-5.0135,-5.0146,-5.0126,-5.0196,-5.0138,-5.0171,-5.0156,-5.0088,-5.0088,-5.0201,-5.0196,-5.0116,-5.032,-5.0215,-5.0233,-5.0319,-5.035,-5.0375,-5.0374,-4.9988,0,0,0,0,0,-5.0135,-5.0191,-5.0163,-5.0274,-5.0282,-5.0239,-5.0266,-5.0223,-5.0232,-5.0236,-5.0223,-5.0236,-5.0284,-5.0317,-5.0359,-5.0498,-5.0496,-5.0567,-5.0593,-5.0613,-5.063,-5.0705,-5.0736,-5.0399,-5.0398,-5.0398,0,0,-5.0233,-5.0225,-5.0263,-5.0304,-5.0307,-5.0367,-5.0244,-5.0312,-5.0356,-5.0247,-5.0341,-5.0333,-5.0342,-5.0463,-5.0516,-5.0462,-5.0723,-5.0631,-5.0648,-5.0653,-5.0722,-5.0754,-5.0783,-5.0408,-5.0406,-5.0405,0,0,-5.0443,-5.0441,-5.0534,-5.054,-5.0547,-5.0518,-5.0541,-5.053,-5.052,-5.0613,-5.0533,-5.0586,-5.0669,-5.068,-5.0696,-5.0912,-5.0849,-5.0928,-5.106,-5.1134,-5.1161,-5.1184,-5.1262,-5.1291,-5.0945,-5.0945,-5.0945,0,-5.0564,-5.065,-5.0589,-5.0664,-5.0684,-5.0588,-5.0683,-5.0692,-5.0713,-5.073,-5.067,-5.0774,-5.0774,-5.0897,-5.095,-5.0966,-5.0991,-5.0928,-5.1162,-5.1184,-5.1205,-5.1279,-5.1308,-5.0955,-5.0954,-5.0953,-5.0952,0,-5.0799,-5.086,-5.0935,-5.0957,-5.0986,-5.1071,-5.1025,-5.1062,-5.1018,-5.0996,-5.1093,-5.109,-5.113,-5.1156,-5.1114,-5.1274,-5.1241,-5.1173,-5.1066,-5.1248,-5.1316,-5.1344,-5.0968,-5.0965,-5.0962,-5.096,0,0,-5.1101,-5.109,-5.1118,-5.1128,-5.1129,-5.1176,-5.1258,-5.1296,-5.133,-5.1349,-5.1416,-5.149,-5.1427,-5.1446,-5.1404,-5.1469,-5.1642,-5.1393,-5.1392,-5.144,-5.182,-5.1872,-5.1905,-5.1601,-5.1606,-5.161,-5.182,0,-5.1305,-5.1441,-5.139,-5.1531,-5.1587,-5.1498,-5.1569,-5.1579,-5.1561,-5.1608,-5.1589,-5.1643,-5.1555,-5.1566,-5.1626,-5.1609,-5.1718,-5.1593,-5.1663,-5.1667,-5.1663,-5.194,-5.1995,-5.2193,-5.1846,-5.185,-5.1853,0,-5.156,-5.1589,-5.1736,-5.1729,-5.1751,-5.1815,-5.1848,-5.1893,-5.1903,-5.1886,-5.1909,-5.1854,-5.1934,-5.1828,-5.1939,-5.1856,-5.1882,-5.1878,-5.1884,-5.1889,-5.1771,-5.1953,-5.2254,-5.2284,-5.1895,-5.1891,-5.1888,0,-5.1767,-5.1842,-5.1939,-5.195,-5.1945,-5.1993,-5.1993,-5.1997,-5.2024,-5.2054,-5.2071,-5.211,-5.2132,-5.2164,-5.2122,-5.2048,-5.224,-5.213,-5.2229,-5.223,-5.2272,-5.227,-5.2583,-5.229,-5.229,-5.2289,-5.2289,0,-5.2,-5.2093,-5.2032,-5.2092,-5.2195,-5.2137,-5.224,-5.223,-5.2236,-5.2293,-5.2219,-5.2275,-5.2216,-5.2267,-5.2235,-5.2333,-5.2343,-5.2332,-5.2323,-5.2339,-5.234,-5.2355,-5.234,-5.2297,-5.2295,-5.2294,-5.2292,0,-5.2247,-5.221,-5.231,-5.2297,-5.2296,-5.2373,-5.2362,-5.2418,-5.2396,-5.247,-5.2484,-5.245,-5.2507,-5.2468,-5.2525,-5.2503,-5.2632,-5.2603,-5.2628,-5.262,-5.2721,-5.2712,-5.3054,-5.3096,-5.2777,-5.278,-5.2782,0,-5.2397,-5.2467,-5.2462,-5.2495,-5.25,-5.2554,-5.2582,-5.2528,-5.2561,-5.2579,-5.2633,-5.2683,-5.272,-5.2816,-5.2797,-5.2841,-5.2812,-5.2929,-5.2818,-5.2833,-5.2814,-5.2811,-5.2818,-5.2951,-5.2955,-5.2958,-5.2961,0,-5.2669,-5.2648,-5.269,-5.2727,-5.2762,-5.2789,-5.281,-5.2842,-5.2788,-5.2829,-5.2885,-5.2915,-5.2973,-5.3024,-5.3061,-5.3063,-5.3004,-5.2996,-5.3021,-5.3038,-5.305,-5.3045,-5.2689,-5.2988,-5.2985,-5.2983,-5.2982,-5.2981,-5.2872,-5.293,-5.2936,-5.2987,-5.2997,-5.3019,-5.3071,-5.3056,-5.3102,-5.3145,-5.3111,-5.3179,-5.319,-5.3233,-5.3243,-5.3296,-5.3249,-5.3285,-5.3294,-5.3304,-5.3318,-5.3042,-5.3303,-5.3302,-5.3301,-5.3301,-5.33,0,-5.314,-5.314,-5.3187,-5.3218,-5.3259,-5.32,-5.322,-5.3258,-5.3319,-5.3333,-5.3372,-5.3439,-5.3489,-5.3475,-5.352,-5.3566,-5.354,-5.358,-5.3576,-5.3577,-5.3358,-5.3332,-5.36,-5.36,-5.36,-5.36,-5.36,-5.36,-5.3284,-5.3379,-5.336,-5.3461,-5.346,-5.3525,-5.3543,-5.3563,-5.3574,-5.3652,-5.3693,-5.3683,-5.3687,-5.3733,-5.3777,-5.3772,-5.3792,-5.3841,-5.3827,-5.3622,-5.3592,-5.3564,-5.3539,-5.3846,-5.3847,-5.4041,-5.4043,-5.4044]},{"header":{"parameterUnit":"m.s-1","parameterCategory":1,"la1":30.2991,"la2":30.254,"lo1":-89.0895,"lo2":-89.0444,"dy":0.0017,"dx":0.0017,"nx":28,"ny":28,"refTime":"2023-09-26T09:00:00:Z","depth":0,"parameterNumber":3,"parameterNumberName":"V-component_of_WINDS"},"data":[0,0,0,0,0,0,0,0,0,0,0,0,0,0,0,0,0,0,0,0,0,0,0,0,0,0,0,0,0,0,0,0,0,0,0,0,0,0,0,0,0,0,0,0,0,0,0,0,0,0,0,0,0,0,0,0,0,0,-1.7749,-1.7749,0,-1.7724,-1.7723,-1.7723,-1.7723,-1.7724,-1.7724,-1.7724,-1.7697,-1.7696,-1.7695,0,0,0,0,0,0,0,0,0,0,0,0,0,-1.7795,-1.7794,-1.7749,-1.7749,-1.7748,-1.7724,-1.7723,-1.7723,-1.7723,-1.7724,-1.7724,-1.7725,-1.7698,-1.7696,-1.7695,0,0,0,0,0,0,0,0,0,0,0,0,0,-1.7773,-1.7794,-1.7749,-1.7746,-1.7745,-1.7724,-1.7723,-1.7723,-1.7723,-1.7724,-1.7724,-1.7725,-1.7698,-1.7697,-1.7695,-1.7675,0,0,-1.769,-1.769,0,0,0,0,0,0,0,0,-1.7774,-1.7771,-1.7747,-1.7746,-1.7745,-1.7727,-1.773,-1.7707,-1.7723,-1.7732,-1.7724,-1.7725,-1.7707,-1.7705,-1.7699,-1.7674,-1.7673,-1.769,-1.7689,-1.7688,-1.7688,0,0,0,0,0,0,0,-1.7776,-1.7772,-1.7739,-1.7746,-1.7745,-1.7744,-1.7742,-1.7725,-1.7717,-1.7731,-1.7731,-1.7728,-1.7707,-1.77,-1.7698,-1.7672,-1.769,-1.7689,-1.7688,-1.7687,-1.7626,-1.7626,0,0,0,0,0,0,-1.7778,-1.7774,-1.774,-1.7738,-1.7761,-1.7743,-1.774,-1.7732,-1.7717,-1.7715,-1.7727,-1.7728,-1.7703,-1.77,-1.7697,-1.767,-1.7688,-1.7687,-1.7686,-1.7627,-1.7626,-1.7625,0,0,0,0,0,0,-1.7779,-1.7775,-1.7741,-1.7756,-1.7751,-1.7742,-1.7733,-1.7732,-1.7725,-1.7714,-1.7712,-1.7723,-1.7703,-1.7699,-1.768,-1.7669,-1.7686,-1.7685,-1.7628,-1.7627,-1.7626,-1.7618,0,0,0,0,0,0,-1.7781,-1.7776,-1.7769,-1.7756,-1.7751,-1.7725,-1.7733,-1.7731,-1.7723,-1.7723,-1.7709,-1.7707,-1.7703,-1.7682,-1.7678,-1.7668,-1.7684,-1.7629,-1.7627,-1.7626,-1.7619,-1.7617,-1.7615,0,0,0,0,0,-1.7782,-1.7768,-1.7769,-1.7764,-1.7742,-1.7724,-1.7721,-1.7717,-1.7722,-1.7714,-1.7707,-1.7708,-1.7671,-1.768,-1.7676,-1.7664,-1.7629,-1.7628,-1.7626,-1.762,-1.7617,-1.7615,0,0,0,0,0,0,-1.7781,-1.7767,-1.7767,-1.7748,-1.7737,-1.7725,-1.7715,-1.7715,-1.7702,-1.7703,-1.7697,-1.7694,-1.7674,-1.7668,-1.7678,-1.7643,-1.7651,-1.7648,-1.7648,-1.7645,-1.7643,-1.7644,-1.7682,0,0,0,0,0,-1.7778,-1.7766,-1.7754,-1.7738,-1.7733,-1.7725,-1.7717,-1.7714,-1.7703,-1.7698,-1.7689,-1.7678,-1.7663,-1.7654,-1.764,-1.7618,-1.7614,-1.7608,-1.7606,-1.7604,-1.7602,-1.7587,-1.7583,-1.762,-1.762,-1.762,0,0,-1.7773,-1.7764,-1.7756,-1.7738,-1.7729,-1.7715,-1.7721,-1.7707,-1.7696,-1.7696,-1.7676,-1.7669,-1.7656,-1.7634,-1.7624,-1.7628,-1.7591,-1.7602,-1.7601,-1.76,-1.7585,-1.7581,-1.7578,-1.7619,-1.7619,-1.762,0,0,-1.7756,-1.7748,-1.7733,-1.7724,-1.7711,-1.7705,-1.7701,-1.7688,-1.7683,-1.7663,-1.7662,-1.7649,-1.7625,-1.7614,-1.7606,-1.7582,-1.7581,-1.7577,-1.7566,-1.7551,-1.7549,-1.7546,-1.7535,-1.7531,-1.7575,-1.7575,-1.7575,0,-1.7751,-1.773,-1.7726,-1.771,-1.7701,-1.7701,-1.7684,-1.7675,-1.7658,-1.7651,-1.7656,-1.7624,-1.7615,-1.7589,-1.7583,-1.7577,-1.7571,-1.7579,-1.7549,-1.7547,-1.7544,-1.7534,-1.753,-1.7575,-1.7575,-1.7575,-1.7575,0,-1.7723,-1.7709,-1.7698,-1.7681,-1.7671,-1.7655,-1.7647,-1.7637,-1.7635,-1.7628,-1.7606,-1.7595,-1.7578,-1.7572,-1.757,-1.7545,-1.7547,-1.7551,-1.7559,-1.754,-1.753,-1.7526,-1.7574,-1.7574,-1.7574,-1.7574,0,0,-1.7706,-1.7684,-1.768,-1.7671,-1.7655,-1.7643,-1.7627,-1.761,-1.76,-1.7587,-1.7572,-1.755,-1.7552,-1.7543,-1.7539,-1.7527,-1.7505,-1.7531,-1.753,-1.7525,-1.7474,-1.747,-1.7466,-1.7505,-1.7504,-1.7503,-1.7474,0,-1.7685,-1.7656,-1.7651,-1.7625,-1.761,-1.7607,-1.7592,-1.758,-1.7573,-1.7558,-1.755,-1.7533,-1.7539,-1.7532,-1.752,-1.751,-1.7494,-1.7512,-1.7488,-1.7487,-1.749,-1.7461,-1.7458,-1.7431,-1.747,-1.747,-1.7469,0,-1.7658,-1.7644,-1.7617,-1.76,-1.7593,-1.758,-1.7562,-1.7549,-1.7534,-1.7529,-1.7517,-1.7514,-1.7495,-1.7504,-1.7475,-1.7488,-1.7477,-1.7471,-1.747,-1.7466,-1.7476,-1.7455,-1.7422,-1.7418,-1.7463,-1.7464,-1.7464,0,-1.7646,-1.762,-1.7599,-1.7592,-1.7572,-1.7562,-1.7554,-1.7539,-1.7528,-1.7512,-1.7505,-1.7487,-1.7477,-1.7463,-1.7454,-1.7462,-1.7425,-1.7435,-1.7419,-1.7419,-1.7411,-1.7411,-1.7375,-1.7407,-1.7407,-1.7407,-1.7407,0,-1.7623,-1.7606,-1.7593,-1.758,-1.756,-1.7552,-1.7532,-1.7523,-1.751,-1.7494,-1.7491,-1.7476,-1.7466,-1.7449,-1.7443,-1.7418,-1.7415,-1.7409,-1.7407,-1.7408,-1.7408,-1.74,-1.7401,-1.7406,-1.7406,-1.7407,-1.7407,0,-1.7605,-1.7596,-1.7573,-1.7556,-1.7551,-1.7537,-1.7521,-1.7508,-1.7499,-1.7479,-1.7474,-1.7461,-1.744,-1.743,-1.7405,-1.74,-1.7372,-1.7373,-1.7377,-1.7376,-1.7361,-1.7361,-1.7316,-1.7308,-1.7348,-1.7347,-1.7347,0,-1.7591,-1.7578,-1.7558,-1.7547,-1.7538,-1.7521,-1.7509,-1.7501,-1.7488,-1.7468,-1.7456,-1.7436,-1.7419,-1.7386,-1.7373,-1.7353,-1.7351,-1.7337,-1.7349,-1.7349,-1.7348,-1.7349,-1.7346,-1.7335,-1.7334,-1.7334,-1.7334,0,-1.7566,-1.7561,-1.7545,-1.7526,-1.7512,-1.7497,-1.7482,-1.7473,-1.7461,-1.7447,-1.7426,-1.7413,-1.7386,-1.7364,-1.7343,-1.7332,-1.733,-1.733,-1.7325,-1.7325,-1.7328,-1.7324,-1.737,-1.7331,-1.7331,-1.7331,-1.7332,-1.7332,-1.7548,-1.7535,-1.7518,-1.7499,-1.7487,-1.7472,-1.7457,-1.7446,-1.7429,-1.7406,-1.7402,-1.7378,-1.7361,-1.7331,-1.732,-1.73,-1.7303,-1.7297,-1.7295,-1.7293,-1.7291,-1.7332,-1.7297,-1.7297,-1.7297,-1.7297,-1.7297,0,-1.7521,-1.751,-1.7492,-1.747,-1.7454,-1.7454,-1.7436,-1.7423,-1.7402,-1.7386,-1.7369,-1.7342,-1.7321,-1.7306,-1.7283,-1.727,-1.7268,-1.7264,-1.7264,-1.7261,-1.729,-1.7296,-1.7266,-1.7266,-1.7266,-1.7266,-1.7266,-1.7266,-1.7505,-1.7481,-1.7474,-1.7443,-1.7432,-1.7409,-1.7398,-1.7384,-1.737,-1.7341,-1.7323,-1.7313,-1.7296,-1.7272,-1.7251,-1.7247,-1.7238,-1.7233,-1.7229,-1.7256,-1.726,-1.7263,-1.7268,-1.7232,-1.7232,-1.7201,-1.7201,-1.72]}]]